Regional Weather Roundup
Issued by NWS

Home | Current Version | Previous Version | Graphics & Text | Print | Product List | Glossary On
Versions: 1 2 3 4 5 6 7 8 9 10 11 12 13 14 15 16 17 18 19 20 21 22 23 24 25 26 27 28 29 30 31 32 33 34 35 36 37 38 39 40 41 42 43 44 45 46 47 48 49 50
000
ASUS43 KMKX 220400
RWRWI

WISCONSIN REGIONAL WEATHER ROUNDUP
NATIONAL WEATHER SERVICE MILWAUKEE/SULLIVAN WI
1000 PM CST TUE FEB 21 2017

NOTE: "FAIR" INDICATES FEW OR NO CLOUDS BELOW 12,000 FEET WITH NO
SIGNIFICANT WEATHER AND/OR OBSTRUCTIONS TO VISIBILITY.

WIZ001-002-006>008-014>016-023>028-220500-
NORTHWEST WISCONSIN

CITY           SKY/WX    TMP DP  RH WIND       PRES   REMARKS
SUPERIOR ARPT  CLOUDY    35  33  96 CALM      29.68R
ASHLAND        CLOUDY    42  34  73 S3        29.66F
HAYWARD        CLOUDY    49  39  68 S7        29.68S
SIREN          PTCLDY    50  42  73 S8        29.68S
CUMBERLAND     PTCLDY    41  37  87 S7        29.70S
RICE LAKE      PTCLDY    47  39  74 S7        29.72S
CHETEK         PTCLDY    49  40  70 S3        29.72S
LADYSMITH      CLOUDY    47  36  64 S3        29.73F
EAU CLAIRE     NOT AVBL
MENOMONIE      MOCLDY    49  40  71 S5        29.72S
NEW RICHMOND   CLEAR     47  42  82 S7        29.71R
OSCEOLA        NOT AVBL
$$

WIZ003>005-009-010-017-018-220500-
NORTH CENTRAL WISCONSIN

CITY           SKY/WX    TMP DP  RH WIND       PRES   REMARKS
MANITOWISH WTR CLOUDY    42  36  76 S5        29.70F
ARBOR VITAE    CLOUDY    46  35  66 SW6         N/A
WOODRUFF       CLOUDY    46  35  66 SW6         N/A
RHINELANDER    CLOUDY    49  34  56 SW10      29.73F
EAGLE RIVER    CLOUDY    46  31  57 SW3       29.72F
LAND O LAKES   CLOUDY    45  32  60 S3        29.72F
PHILLIPS       PTCLDY    46  34  62 SW6       29.70F
TOMAHAWK       CLOUDY    46  33  61 CALM      29.74F
MEDFORD        CLOUDY    44  34  69 S6        29.74F
MERRILL        NOT AVBL
$$

WIZ029-030-035-036-043>047-220500-
CENTRAL WISCONSIN

CITY           SKY/WX    TMP DP  RH WIND       PRES   REMARKS
WAUSAU         CLOUDY    49  32  52 S9        29.74F
MOSINEE        PTCLDY    48  34  57 S9        29.77
MARSHFIELD     CLOUDY    48  33  56 SW7       29.75F
STEVENS POINT  PTCLDY    47  32  55 S6        29.78F
WAUPACA        CLOUDY    47  36  64 CALM      29.79S
WAUTOMA        CLOUDY    51  35  54 CALM      29.79F
WISC RAPIDS    CLOUDY    50  34  54 SW9       29.78F
CAMP DOUGLAS   NOT AVBL
$$

WIZ011>013-019>022-031-037>040-048>050-220500-
NORTHEAST WISCONSIN

CITY           SKY/WX    TMP DP  RH WIND       PRES   REMARKS
ANTIGO         CLOUDY    42  32  67 SW6       29.77S
SHAWANO        CLOUDY    51  39  63 SW3       29.78S
OCONTO         CLOUDY    47  37  69 W6        29.78R
STURGEON BAY   CLOUDY    48  39  71 S12       29.78F
GREEN BAY      PTCLDY    48  40  73 S7        29.78F
MANITOWOC      NOT AVBL
APPLETON       NOT AVBL
CLINTONVILLE   CLOUDY    48  36  61 W5        29.79R
OSHKOSH        PTCLDY    51  37  58 SW6       29.80S
$$

WIZ032>034-041-042-053>061-220500-
SOUTHWEST WISCONSIN

CITY           SKY/WX    TMP DP  RH WIND       PRES   REMARKS
LA CROSSE      PTCLDY    50  40  68 S9        29.77F
SPARTA         PTCLDY    44  38  78 S3        29.78F
VIROQUA        CLEAR     47  38  71 S6        29.79S
BOSCOBEL       CLEAR     47  38  71 SW5       29.82R
PRAIRIE DU CHI CLEAR     42  36  79 CALM      29.81S
PLATTEVILLE    CLEAR     47  39  75 S10       29.84S
$$

WIZ056-057-062-063-064-067-068-220500-
SOUTH CENTRAL WISCONSIN

CITY           SKY/WX    TMP DP  RH WIND       PRES   REMARKS
REEDSBURG      CLOUDY    50  37  59 S5        29.80S
BARABOO/DELLS  CLOUDY    53  35  49 S10       29.80S
LONE ROCK      NOT AVBL
MINERAL POINT  CLEAR     48  37  66 S7        29.83F
MADISON        CLOUDY    50  36  58 S7        29.83S
MIDDLETON      CLOUDY    52  38  58 SW3       29.83S
WATERTOWN      PTCLDY    48  37  63 S5        29.84S
MONROE         CLEAR     46  39  76 S8        29.84S
JANESVILLE     CLEAR     52  37  58 CALM      29.85F
$$

WIZ051-052-058>065-066-070>072-220500-
SOUTHEAST WISCONSIN

CITY           SKY/WX    TMP DP  RH WIND       PRES   REMARKS
MILWAUKEE      MOCLDY    49  45  86 S5        29.86F FOG
WAUKESHA       PTCLDY    50  36  57 S5        29.86F
MILWAUKEE/TIMM PTCLDY    46  41  81 S6        29.86F
RACINE         PTCLDY    43  41  93 S3        29.88F FOG
KENOSHA        FOG       45  43  93 S3        29.86F VSB 1/2
FOND DU LAC    PTCLDY    51  36  56 S12       29.81F
SHEBOYGAN      CLOUDY    44  43  96 SW6       29.83S FOG
WEST BEND      MOCLDY    46  43  87 CALM      29.83F
JUNEAU         CLOUDY    49  36  59 S12       29.83F
$$

LSZ147-162-220500-
LAKE SUPERIOR

STATION/POSITION TIME  TEMP    WIND        PRES    WAVE
                       AIR SEA DIR/SP/G            HT/PER
                 (UTC) (F)     (DEG/KT/KT) (MB)    (FT/S)
DEVILS ISLAND    0300   46     220/  3/  3 1005.1F
PORT WING        0340   35     160/  2/  4 1004.7S
SAXON HARBOR     0330   52     170/  4/  9 1004.7R
$$

LMZ867-665-643>646-220500-
LAKE MICHIGAN

STATION/POSITION TIME  TEMP    WIND        PRES    WAVE
                       AIR SEA DIR/SP/G            HT/PER
                 (UTC) (F)     (DEG/KT/KT) (MB)    (FT/S)
CHAMBERS ISLAND  0340   49     170/  8/ 14 1008.1F
NORTHPORT PIER   0340   47     170/  6/ 12 1008.5F
SISTER BAY       0305   45     150/ 11/ 14   N/A
ALGOMA LAKESHORE 0340          210/ 10/ 12   N/A
KEWAUNEE LAKESHO 0330   39     160/  3/  6 1009.1R
SHEBOYGAN LAKESH 0300   44     180/ 17/ 17 1010.7F
PORT WASHINGTON  0330   40     180/  7/  8 1011.9F
MILWAUKEE LAKESH 0320   38     150/  4/  5   N/A
KENOSHA   LAKESH 0300   41     180/ 11/ 12 1011.9
$$

TC  - TEMPERATURE IN CELSIUS
VSB - VISIBILITY IN STATUTE MILES
WCI - WIND CHILL INDEX
HX  - HEAT INDEX





USA.gov is the U.S. government's official web portal to all federal, state and local government web resources and services.